FW0958 Weather Reports


Display with metric or nautical units.
time (UTC)temp
F
wind
direction
speed
MPH
gust
MPH
rain 1hr
in
rain 24hr
in
rain mn
in
humidity
%
barometer
mb
20260510063312 60 9 0.0 0.0 0.00 0.00 0.00 90 1013.4
20260510063307 60 297 0.0 3.0 0.00 0.00 0.00 90 1013.3
20260510062307 60 18 0.0 0.0 0.00 0.00 0.00 90 1013.4
20260510061806 60 18 0.0 0.0 0.00 0.00 0.00 90 1013.2
20260510061306 60 18 0.0 0.0 0.00 0.00 0.00 90 1013.3
20260510060806 59 18 0.0 0.0 0.00 0.00 0.00 90 1013.3
20260510060306 59 18 0.0 0.0 0.00 0.00 0.00 89 1013.3
20260510055804 59 18 0.0 0.0 0.00 0.00 0.00 89 1013.2
20260510055307 59 18 0.0 0.0 0.00 0.00 0.00 89 1013.1
20260510054803 59 18 0.0 0.0 0.00 0.00 0.00 89 1013.1
20260510054303 59 18 0.0 0.0 0.00 0.00 0.00 89 1013.1
20260510053801 60 18 0.0 0.0 0.00 0.00 0.00 89 1013.2
20260510053421 60 18 0.0 0.0 0.00 0.00 0.00 88 1013.3
20260510053307 60 18 0.0 0.0 0.00 0.00 0.00 89 1013.2
20260510053301 60 18 0.0 0.0 0.00 0.00 0.00 89 1013.2
20260510051801 60 18 0.0 0.0 0.00 0.00 0.00 88 1013.2
20260510051301 60 18 0.0 0.0 0.00 0.00 0.00 88 1013.2
20260510050802 60 18 0.0 0.0 0.00 0.00 0.00 88 1013.2
20260510050309 60 18 0.0 0.0 0.00 0.00 0.00 88 1013.2
20260510050304 60 18 0.0 0.0 0.00 0.00 0.00 88 1013.2
20260510045301 60 18 0.0 0.0 0.00 0.00 0.00 88 1013.1
20260510044759 60 18 0.0 0.0 0.00 0.00 0.00 88 1013.1
20260510044300 60 18 0.0 0.0 0.00 0.00 0.00 87 1013.0
20260510043801 60 18 0.0 0.0 0.00 0.00 0.00 87 1013.0
20260510043301 60 18 0.0 0.0 0.00 0.00 0.00 87 1013.0
20260510042800 60 18 0.0 0.0 0.00 0.00 0.00 87 1013.0
20260510042259 61 18 0.0 4.0 0.00 0.00 0.00 87 1012.9
20260510041759 61 18 0.0 4.0 0.00 0.00 0.00 86 1012.9
20260510041301 61 12 1.0 3.0 0.00 0.00 0.00 86 1012.9
20260510040800 61 16 1.0 4.0 0.00 0.00 0.00 86 1012.9
20260510040259 61 14 1.0 4.0 0.00 0.00 0.00 86 1012.8
20260510035757 61 29 2.0 4.0 0.00 0.00 0.00 85 1012.7
20260510035257 62 29 2.0 4.0 0.00 0.00 0.00 85 1012.6
20260510034759 62 14 1.0 4.0 0.00 0.00 0.00 85 1012.6
20260510034258 62 6 2.0 4.0 0.00 0.00 0.00 84 1012.5
20260510033758 62 19 2.0 5.0 0.00 0.00 0.00 84 1012.4
20260510033257 62 4 2.0 5.0 0.00 0.00 0.00 84 1012.3
20260510032757 62 39 2.0 4.0 0.00 0.00 0.00 83 1012.3
20260510032306 63 24 2.0 5.0 0.00 0.00 0.00 82 1012.2
20260510032257 63 9 2.0 6.0 0.00 0.00 0.00 83 1012.3
20260510031758 63 34 2.0 6.0 0.00 0.00 0.00 82 1012.2
20260510030756 63 12 2.0 5.0 0.00 0.00 0.00 82 1012.1
20260510030255 64 18 2.0 5.0 0.00 0.00 0.00 81 1012.0
20260510025800 64 13 2.0 6.0 0.00 0.00 0.00 80 1012.0
20260510025755 64 10 2.0 6.0 0.00 0.00 0.00 81 1012.0
20260510024755 65 29 1.0 3.0 0.00 0.00 0.00 80 1011.9
20260510024256 65 12 1.0 5.0 0.00 0.00 0.00 79 1011.9
20260510023803 66 352 1.0 5.0 0.00 0.00 0.00 78 1011.8
20260510023757 65 29 1.0 5.0 0.00 0.00 0.00 79 1011.8
20260510022759 66 353 1.0 5.0 0.00 0.00 0.00 78 1011.8
20260510022753 66 322 1.0 4.0 0.00 0.00 0.00 77 1011.7
20260510021752 67 12 2.0 6.0 0.00 0.00 0.00 76 1011.7
20260510021256 68 335 1.0 5.0 0.00 0.00 0.00 75 1011.7
20260510021251 67 10 2.0 6.0 0.00 0.00 0.00 75 1011.7
20260510020252 68 39 2.0 6.0 0.00 0.00 0.00 74 1011.6
20260510015751 69 34 2.0 6.0 0.00 0.00 0.00 73 1011.7
20260510015252 69 327 2.0 6.0 0.00 0.00 0.00 72 1011.5
20260510014751 69 285 2.0 6.0 0.00 0.00 0.00 72 1011.6
20260510014256 70 321 2.0 7.0 0.00 0.00 0.00 71 1011.5
20260510014251 70 309 2.0 7.0 0.00 0.00 0.00 71 1011.6
20260510013249 71 307 3.0 7.0 0.00 0.00 0.00 70 1011.5
20260510012750 71 330 3.0 8.0 0.00 0.00 0.00 70 1011.4
20260510012249 71 48 3.0 8.0 0.00 0.00 0.00 69 1011.5
20260510011749 71 322 3.0 8.0 0.00 0.00 0.00 69 1011.4
20260510011248 72 321 3.0 8.0 0.00 0.00 0.00 68 1011.3
20260510010750 72 310 3.0 9.0 0.00 0.00 0.00 68 1011.4
20260510010250 73 332 4.0 9.0 0.00 0.00 0.00 67 1011.5
20260510005750 73 1 4.0 9.0 0.00 0.00 0.00 67 1011.5
20260510005254 74 354 4.0 11.0 0.00 0.00 0.00 65 1011.4
20260510005249 73 1 4.0 11.0 0.00 0.00 0.00 66 1011.6
20260510004251 74 346 4.0 9.0 0.00 0.00 0.00 64 1011.5
20260510003750 75 25 4.0 9.0 0.00 0.00 0.00 63 1011.5
20260510003250 76 337 4.0 10.0 0.00 0.00 0.00 63 1011.5
20260510002748 76 11 4.0 10.0 0.00 0.00 0.00 62 1011.4
20260510002249 76 336 4.0 10.0 0.00 0.00 0.00 62 1011.3
20260510001749 76 0 5.0 10.0 0.00 0.00 0.00 61 1011.3
20260510001248 77 14 4.0 9.0 0.00 0.00 0.00 60 1011.2
20260510000754 78 338 4.0 11.0 0.00 0.00 0.00 59 1011.1
20260510000750 77 326 4.0 9.0 0.00 0.00 0.00 60 1011.2
20260510000249 78 39 4.0 9.0 0.00 0.00 0.00 59 1011.1
20260509235250 78 21 4.0 11.0 0.00 0.00 0.00 59 1011.1
20260509234750 78 1 4.0 10.0 0.00 0.00 0.00 58 1011.1
20260509234249 78 11 4.0 10.0 0.00 0.00 0.00 58 1011.1
20260509233754 78 332 4.0 10.0 0.00 0.00 0.00 57 1011.1
20260509233748 78 330 3.0 8.0 0.00 0.00 0.00 57 1011.1
20260509232748 79 7 5.0 10.0 0.00 0.00 0.00 56 1011.1
20260509232249 79 272 3.0 9.0 0.00 0.00 0.00 57 1011.2
20260509231751 79 34 3.0 8.0 0.00 0.00 0.00 55 1011.1
20260509231248 79 335 4.0 8.0 0.00 0.00 0.00 56 1011.3
20260509230747 79 317 4.0 8.0 0.00 0.00 0.00 56 1011.1
20260509230248 79 290 4.0 10.0 0.00 0.00 0.00 56 1011.2
20260509225752 79 341 4.0 12.0 0.00 0.00 0.00 57 1011.4
20260509225747 79 327 4.0 10.0 0.00 0.00 0.00 57 1011.2
20260509224746 79 282 4.0 12.0 0.00 0.00 0.00 56 1011.3
20260509224248 79 295 4.0 10.0 0.00 0.00 0.00 56 1011.5
20260509223747 79 295 4.0 9.0 0.00 0.00 0.00 57 1011.5
20260509223248 79 34 5.0 10.0 0.00 0.00 0.00 57 1011.6
20260509222746 79 39 4.0 10.0 0.00 0.00 0.00 58 1011.7
20260509222246 79 318 4.0 10.0 0.00 0.00 0.00 58 1011.6
20260509221747 79 332 5.0 10.0 0.00 0.00 0.00 56 1011.8
20260509221246 79 330 4.0 10.0 0.00 0.00 0.00 57 1011.8
20260509220747 79 318 4.0 11.0 0.00 0.00 0.00 57 1011.9
20260509220246 78 332 5.0 11.0 0.00 0.00 0.00 57 1012.0
20260509215746 79 319 5.0 11.0 0.00 0.00 0.00 57 1012.0
20260509215247 79 305 5.0 11.0 0.00 0.00 0.00 57 1012.0
20260509214746 80 322 4.0 11.0 0.00 0.00 0.00 57 1011.9
20260509214247 80 29 5.0 13.0 0.00 0.00 0.00 57 1011.9
20260509213744 79 354 6.0 13.0 0.00 0.00 0.00 57 1011.9
20260509213245 80 270 5.0 11.0 0.00 0.00 0.00 56 1011.9
20260509212744 80 327 5.0 11.0 0.00 0.00 0.00 57 1011.9
20260509212244 79 336 5.0 10.0 0.00 0.00 0.00 57 1011.9
20260509211746 80 341 4.0 10.0 0.00 0.00 0.00 57 1011.9
20260509211244 80 332 4.0 10.0 0.00 0.00 0.00 57 1011.9
20260509210746 80 357 5.0 11.0 0.00 0.00 0.00 57 1012.1
20260509210246 79 288 5.0 11.0 0.00 0.00 0.00 58 1011.9
20260509205746 79 340 5.0 13.0 0.00 0.00 0.00 57 1012.0
20260509205245 80 12 6.0 13.0 0.00 0.00 0.00 57 1012.1
20260509204742 80 34 5.0 12.0 0.00 0.00 0.00 58 1012.1
20260509204243 79 339 5.0 12.0 0.00 0.00 0.00 59 1012.3
20260509203743 79 345 5.0 14.0 0.00 0.00 0.00 58 1012.3
20260509203242 80 340 5.0 14.0 0.00 0.00 0.00 58 1012.3
20260509202743 79 295 6.0 13.0 0.00 0.00 0.00 58 1012.2
20260509202243 80 341 6.0 12.0 0.00 0.00 0.00 57 1012.3
20260509201748 82 324 5.0 10.0 0.00 0.00 0.00 58 1012.2
20260509201742 82 343 5.0 12.0 0.00 0.00 0.00 57 1012.2
20260509200742 82 293 5.0 13.0 0.00 0.00 0.00 58 1012.1
20260509200242 81 323 5.0 13.0 0.00 0.00 0.00 58 1012.1
20260509195741 81 311 5.0 11.0 0.00 0.00 0.00 58 1012.2
20260509195241 81 344 5.0 11.0 0.00 0.00 0.00 57 1012.1
20260509194740 81 351 5.0 11.0 0.00 0.00 0.00 57 1012.1
20260509194241 82 317 5.0 11.0 0.00 0.00 0.00 57 1012.0
20260509193742 83 14 4.0 9.0 0.00 0.00 0.00 55 1012.0
20260509193240 83 293 4.0 9.0 0.00 0.00 0.00 56 1012.1
20260509192742 83 286 4.0 10.0 0.00 0.00 0.00 56 1012.0
20260509192242 83 18 4.0 10.0 0.00 0.00 0.00 56 1012.3
20260509191745 83 295 4.0 10.0 0.00 0.00 0.00 58 1012.2
20260509191740 82 47 4.0 10.0 0.00 0.00 0.00 56 1012.0
20260509190739 82 16 4.0 8.0 0.00 0.00 0.00 57 1012.1
20260509190239 82 328 3.0 8.0 0.00 0.00 0.00 56 1012.2
20260509185738 82 348 3.0 8.0 0.00 0.00 0.00 56 1012.3
20260509185244 82 315 3.0 8.0 0.00 0.00 0.00 56 1012.5
20260509185238 82 326 3.0 8.0 0.00 0.00 0.00 57 1012.3
20260509184238 82 268 3.0 8.0 0.00 0.00 0.00 56 1012.3
20260509183738 81 288 2.0 8.0 0.00 0.00 0.00 58 1012.5
20260509183239 80 304 2.0 7.0 0.00 0.00 0.00 57 1012.4
20260509182739 79 305 2.0 7.0 0.00 0.00 0.00 61 1012.6
20260509182238 78 124 2.0 5.0 0.00 0.00 0.00 62 1012.6
20260509181736 78 336 2.0 6.0 0.00 0.00 0.00 62 1012.6
20260509181235 77 332 2.0 6.0 0.00 0.00 0.00 63 1012.8
20260509180736 76 357 2.0 5.0 0.00 0.00 0.00 64 1012.8
20260509180241 76 298 2.0 4.0 0.00 0.00 0.00 64 1012.9
20260509180237 76 338 2.0 4.0 0.00 0.00 0.00 66 1012.8
20260509175236 76 315 2.0 4.0 0.00 0.00 0.00 67 1013.0
20260509174737 75 283 2.0 4.0 0.00 0.00 0.00 66 1013.0
20260509174241 74 241 2.0 4.0 0.00 0.00 0.00 68 1013.1
20260509174236 75 273 2.0 4.0 0.00 0.00 0.00 67 1013.1
20260509173237 74 270 2.0 4.0 0.00 0.00 0.00 70 1013.2
20260509172736 72 257 2.0 4.0 0.00 0.00 0.00 70 1013.2
20260509172243 70 218 2.0 4.0 0.00 0.00 0.00 74 1013.2
20260509172237 73 257 2.0 4.0 0.00 0.00 0.00 71 1013.2
20260509171736 72 241 2.0 4.0 0.00 0.00 0.00 72 1013.2
20260509170736 69 251 2.0 4.0 0.00 0.00 0.00 74 1013.2
20260509170236 70 248 2.0 4.0 0.00 0.00 0.00 74 1013.1
20260509165737 70 243 2.0 5.0 0.00 0.00 0.00 75 1013.3
20260509165237 69 243 2.0 5.0 0.00 0.00 0.00 76 1013.2
20260509164736 68 268 1.0 4.0 0.00 0.00 0.00 78 1013.3
20260509164236 67 168 1.0 3.0 0.00 0.00 0.00 78 1013.5
20260509163735 67 71 2.0 3.0 0.00 0.00 0.00 78 1013.4
20260509163236 67 9 2.0 4.0 0.00 0.00 0.00 79 1013.6
20260509162741 66 160 1.0 4.0 0.00 0.00 0.00 82 1013.7
20260509162737 67 110 2.0 4.0 0.00 0.00 0.00 81 1013.5
20260509161735 65 180 1.0 4.0 0.00 0.00 0.00 84 1013.6
20260509161237 65 182 0.0 3.0 0.00 0.00 0.00 84 1013.6
20260509160737 64 112 0.0 3.0 0.00 0.00 0.00 85 1013.6
20260509160239 63 221 0.0 2.0 0.00 0.00 0.00 86 1013.7
20260509160234 63 212 0.0 2.0 0.00 0.00 0.00 86 1013.7
20260509155235 63 228 0.0 2.0 0.00 0.00 0.00 86 1013.6
20260509154735 63 228 0.0 2.0 0.00 0.00 0.00 87 1013.5
20260509154353 62 234 0.0 2.0 0.00 0.00 0.00 87 1013.6
20260509154238 62 229 0.0 2.0 0.00 0.00 0.00 88 1013.6
20260509154233 62 229 0.0 1.0 0.00 0.00 0.00 87 1013.6
20260509153349 62 239 0.0 0.0 0.00 0.00 0.00 88 1013.6
20260509152233 62 239 0.0 0.0 0.00 0.00 0.00 89 1013.6
20260509151733 62 239 0.0 2.0 0.00 0.00 0.00 89 1013.6
20260509151232 61 239 0.0 2.0 0.00 0.00 0.00 89 1013.8
20260509150736 61 238 0.0 2.0 0.00 0.00 0.00 90 1013.8
20260509150731 61 238 0.0 0.0 0.00 0.00 0.00 90 1013.7
20260509145733 61 238 0.0 2.0 0.00 0.00 0.00 90 1013.7
20260509145231 60 243 0.0 2.0 0.00 0.00 0.00 90 1013.7
20260509144731 61 244 0.0 1.0 0.00 0.00 0.00 90 1013.6
20260509144234 60 244 0.0 3.0 0.00 0.00 0.00 91 1013.6
20260509144229 60 244 0.0 2.0 0.00 0.00 0.00 91 1013.6
20260509143230 60 244 1.0 4.0 0.00 0.00 0.00 91 1013.5
20260509142731 60 243 1.0 4.0 0.00 0.00 0.00 91 1013.5
20260509142228 60 215 0.0 3.0 0.00 0.00 0.00 91 1013.5
20260509141731 60 215 0.0 2.0 0.00 0.00 0.00 91 1013.5
20260509141231 60 215 0.0 2.0 0.00 0.00 0.00 91 1013.3
20260509140729 60 216 0.0 3.0 0.00 0.00 0.00 92 1013.3
20260509140234 60 216 0.0 3.0 0.00 0.00 0.00 92 1013.3
20260509140230 60 216 0.0 3.0 0.00 0.00 0.00 92 1013.2
20260509135228 60 216 0.0 3.0 0.00 0.00 0.00 92 1013.4
20260509134728 60 216 1.0 3.0 0.00 0.00 0.00 92 1013.4
20260509134228 60 215 1.0 4.0 0.00 0.00 0.00 92 1013.3
20260509133727 60 215 1.0 4.0 0.00 0.00 0.00 92 1013.3
20260509133228 60 218 0.0 3.0 0.00 0.00 0.00 92 1013.2
20260509132727 60 217 0.0 3.0 0.00 0.00 0.00 92 1013.2
20260509132227 60 217 0.0 3.0 0.00 0.00 0.00 92 1013.2
20260509131728 60 216 0.0 1.0 0.00 0.00 0.00 92 1013.2
20260509131227 60 216 0.0 0.0 0.00 0.00 0.00 92 1013.2
20260509130726 60 216 0.0 3.0 0.00 0.00 0.00 92 1013.1
20260509130226 60 216 1.0 5.0 0.00 0.00 0.00 92 1013.1
20260509125725 60 216 1.0 5.0 0.00 0.00 0.00 92 1013.1
20260509125226 60 199 0.0 4.0 0.00 0.00 0.00 92 1013.1
20260509124726 60 197 0.0 0.0 0.00 0.00 0.00 92 1013.1
20260509124226 60 194 0.0 0.0 0.00 0.00 0.00 92 1013.1
20260509123725 60 194 0.0 0.0 0.00 0.00 0.00 92 1013.0
20260509123225 60 195 0.0 0.0 0.00 0.00 0.00 92 1013.0
20260509122726 60 193 0.0 0.0 0.00 0.00 0.00 92 1012.9
20260509122229 60 193 0.0 0.0 0.00 0.00 0.00 92 1013.0
20260509122224 60 193 0.0 0.0 0.00 0.00 0.00 92 1012.9
20260509121224 60 193 0.0 0.0 0.00 0.00 0.00 92 1012.9
20260509120724 60 193 0.0 0.0 0.00 0.00 0.00 92 1012.9
20260509120224 60 193 0.0 0.0 0.00 0.00 0.00 92 1012.9
20260509115730 60 193 0.0 0.0 0.00 0.00 0.00 92 1012.9
20260509115723 60 193 0.0 0.0 0.00 0.00 0.00 92 1012.9
20260509115224 60 193 0.0 0.0 0.00 0.00 0.00 92 1012.8
20260509114842 60 193 0.0 0.0 0.00 0.00 0.00 92 1012.8
20260509114223 60 193 0.0 0.0 0.00 0.00 0.00 92 1012.7
20260509113224 60 193 0.0 0.0 0.00 0.00 0.00 92 1012.8
20260509112728 60 193 0.0 0.0 0.00 0.00 0.00 92 1012.9
20260509112722 60 193 0.0 0.0 0.00 0.00 0.00 92 1012.9
20260509112221 60 193 0.0 0.0 0.00 0.00 0.00 92 1012.8
20260509111721 60 193 0.0 0.0 0.00 0.00 0.00 92 1013.0
20260509110721 60 193 0.0 0.0 0.00 0.00 0.00 92 1012.8
20260509110220 60 193 0.0 0.0 0.00 0.00 0.00 92 1012.9
20260509105727 60 195 0.0 0.0 0.00 0.00 0.00 92 1012.9
20260509105723 60 193 0.0 0.0 0.00 0.00 0.00 92 1012.8
20260509104722 60 195 0.0 0.0 0.00 0.00 0.00 92 1012.9
20260509104221 60 199 0.0 0.0 0.00 0.00 0.00 92 1013.0
20260509103721 60 201 0.0 0.0 0.00 0.00 0.00 92 1013.0
20260509103220 60 205 0.0 0.0 0.00 0.00 0.00 92 1013.1
20260509102720 60 207 0.0 0.0 0.00 0.00 0.00 92 1013.0
20260509102221 60 208 0.0 0.0 0.00 0.00 0.00 92 1013.1
20260509101721 60 294 0.0 0.0 0.00 0.00 0.00 91 1013.0
20260509101225 60 291 0.0 0.0 0.00 0.00 0.00 92 1013.1
20260509101220 60 291 0.0 0.0 0.00 0.00 0.00 91 1013.1
20260509100221 60 291 0.0 0.0 0.00 0.00 0.00 92 1013.1
20260509095721 60 291 0.0 0.0 0.00 0.00 0.00 91 1013.1
20260509095226 60 291 0.0 0.0 0.00 0.00 0.00 91 1013.1
20260509095221 60 291 0.0 0.0 0.00 0.00 0.00 91 1013.0
20260509094220 60 291 0.0 0.0 0.00 0.00 0.00 91 1013.0
20260509093722 61 291 0.0 0.0 0.00 0.00 0.00 91 1013.2
20260509093220 61 291 0.0 0.0 0.00 0.00 0.00 91 1013.2
20260509092720 60 291 0.0 0.0 0.00 0.00 0.00 91 1013.2
20260509092221 60 291 0.0 0.0 0.00 0.00 0.00 91 1013.2
20260509091720 60 291 0.0 0.0 0.00 0.00 0.00 91 1013.4
20260509091221 60 291 0.0 0.0 0.00 0.00 0.00 91 1013.3
20260509090718 60 307 0.0 0.0 0.00 0.00 0.00 91 1013.4
20260509090218 60 304 0.0 0.0 0.00 0.00 0.00 91 1013.4
20260509085718 60 332 0.0 0.0 0.00 0.00 0.00 91 1013.5
20260509085216 60 116 0.0 0.0 0.00 0.00 0.00 91 1013.5
20260509084714 60 117 0.0 0.0 0.00 0.00 0.00 91 1013.5
20260509084215 60 117 0.0 0.0 0.00 0.00 0.00 91 1013.6
20260509083714 60 117 0.0 0.0 0.00 0.00 0.00 91 1013.6
20260509083220 60 117 0.0 0.0 0.00 0.00 0.00 91 1013.7
20260509083216 60 117 0.0 0.0 0.00 0.00 0.00 91 1013.6
20260509082835 60 117 0.0 0.0 0.00 0.00 0.00 91 1013.7
20260509081714 61 165 0.0 0.0 0.00 0.00 0.00 91 1013.7
20260509081215 61 165 0.0 0.0 0.00 0.00 0.00 91 1013.8
20260509080713 61 165 0.0 0.0 0.00 0.00 0.00 91 1013.7
20260509080214 61 165 0.0 0.0 0.00 0.00 0.00 91 1013.8
20260509075713 61 165 0.0 0.0 0.00 0.00 0.00 91 1013.8
20260509075213 61 165 0.0 0.0 0.00 0.00 0.00 91 1013.9
20260509074713 61 164 0.0 0.0 0.00 0.00 0.00 91 1014.0
20260509074212 61 124 0.0 0.0 0.00 0.00 0.00 91 1013.9
20260509073712 61 124 0.0 0.0 0.00 0.00 0.00 91 1014.0
20260509073214 61 124 0.0 0.0 0.00 0.00 0.00 91 1014.0
20260509072712 61 34 0.0 0.0 0.00 0.00 0.00 91 1014.0
20260509072213 61 34 0.0 0.0 0.00 0.00 0.00 91 1014.1
20260509071712 60 34 0.0 0.0 0.00 0.00 0.00 91 1014.2
20260509071210 60 34 0.0 0.0 0.00 0.00 0.00 91 1014.4
20260509070711 60 34 0.0 0.0 0.00 0.00 0.00 91 1014.2
20260509070210 60 34 0.0 0.0 0.00 0.00 0.00 91 1014.4
20260509065709 60 34 0.0 0.0 0.00 0.00 0.00 91 1014.4
20260509065210 60 34 0.0 0.0 0.00 0.00 0.00 91 1014.4
20260509064709 60 34 0.0 0.0 0.00 0.00 0.00 91 1014.5
20260509064211 60 34 0.0 0.0 0.00 0.00 0.00 91 1014.4
20260509063710 60 34 0.0 0.0 0.00 0.00 0.00 91 1014.4